Location: *
(46.4000°N, 12.6667°E)
Time: 18:49:08
(UTC+00:00)

Cosmos 1943 Rocket - Pass Details

Date: 09 April 2020
Orbit: 811 x 845 km, 71.0° (Epoch: 02 June)

Event Time Altitude Azimuth Distance (km) Brightness Sun altitude
Rises 18:26:19 0° 324° (NW) 3,360 6.4 -6.9°
Reaches altitude 10° 18:29:03 10° 313° (NW) 2,428 5.9 -7.4°
Maximum altitude 18:33:39 27° 257° (WSW) 1,531 4.3 -8.1°
Drops below altitude 10° 18:38:16 10° 200° (SSW) 2,432 4.6 -8.9°
Sets 18:41:01 0° 189° (S) 3,367 5.2 -9.3°
